Previsão horária em Cegielnia

Hoje, 25 Julho, Domingo

Tempo Temperatura Precipitação Vento Pressão Humidade
00:00 +19°C° 0 mm 3 m/s 757 mmHg 73%
01:00 +19°C° 0 mm 3 m/s 757 mmHg 74%
02:00 +18°C° 0 mm 3 m/s 757 mmHg 75%
03:00 +18°C° 0 mm 3 m/s 757 mmHg 75%
04:00 +18°C° 0 mm 3 m/s 756 mmHg 75%
05:00 +20°C° 0 mm 3 m/s 756 mmHg 72%
06:00 +21°C° 0 mm 3 m/s 756 mmHg 69%
07:00 +22°C° 0 mm 4 m/s 756 mmHg 67%
08:00 +23°C° 0 mm 4 m/s 756 mmHg 65%
09:00 +25°C° 0 mm 4 m/s 756 mmHg 63%
10:00 +26°C° 0 mm 4 m/s 757 mmHg 61%
11:00 +27°C° 0 mm 4 m/s 756 mmHg 56%
12:00 +28°C° 0 mm 4 m/s 756 mmHg 51%
13:00 +29°C° 0 mm 4 m/s 756 mmHg 46%
14:00 +28°C° 0.1 mm 3 m/s 757 mmHg 52%
15:00 +27°C° 0.1 mm 3 m/s 757 mmHg 58%
16:00 +26°C° 0.1 mm 2 m/s 757 mmHg 64%
17:00 +25°C° 0 mm 2 m/s 757 mmHg 67%
18:00 +24°C° 0 mm 2 m/s 756 mmHg 70%
19:00 +24°C° 0 mm 1 m/s 756 mmHg 72%
20:00 +23°C° 0 mm 2 m/s 756 mmHg 75%
21:00 +21°C° 0 mm 2 m/s 756 mmHg 78%
22:00 +20°C° 0 mm 2 m/s 756 mmHg 81%
23:00 +20°C° 0 mm 2 m/s 756 mmHg 80%

Amanhã, 26 Julho, Segunda-feira

Tempo Temperatura Precipitação Vento Pressão Humidade
00:00 +20°C° 0 mm 3 m/s 756 mmHg 80%
01:00 +20°C° 0 mm 3 m/s 756 mmHg 79%
02:00 +20°C° 0 mm 4 m/s 756 mmHg 77%
03:00 +21°C° 0 mm 4 m/s 755 mmHg 75%
04:00 +21°C° 0 mm 4 m/s 755 mmHg 72%
05:00 +22°C° 0 mm 4 m/s 755 mmHg 72%
06:00 +22°C° 0 mm 4 m/s 755 mmHg 72%
07:00 +22°C° 0 mm 3 m/s 755 mmHg 73%
08:00 +25°C° 0 mm 3 m/s 755 mmHg 67%
09:00 +26°C° 0 mm 3 m/s 755 mmHg 61%
10:00 +28°C° 0 mm 3 m/s 755 mmHg 56%
11:00 +29°C° 0 mm 2 m/s 755 mmHg 53%
12:00 +30°C° 0 mm 2 m/s 755 mmHg 51%
13:00 +30°C° 0 mm 1 m/s 755 mmHg 49%
14:00 +31°C° 0 mm 1 m/s 755 mmHg 48%
15:00 +31°C° 0 mm 1 m/s 755 mmHg 47%
16:00 +31°C° 0 mm 1 m/s 754 mmHg 46%
17:00 +30°C° 0 mm 1 m/s 754 mmHg 52%
18:00 +29°C° 0 mm 1 m/s 754 mmHg 57%
19:00 +27°C° 0 mm 2 m/s 754 mmHg 63%
20:00 +26°C° 0 mm 2 m/s 754 mmHg 65%
21:00 +25°C° 0 mm 2 m/s 754 mmHg 68%
22:00 +24°C° 0 mm 2 m/s 755 mmHg 70%
23:00 +24°C° 0 mm 2 m/s 755 mmHg 72%

Depois de amanhã, 27 Julho, Terça-feira

Tempo Temperatura Precipitação Vento Pressão Humidade
00:00 +23°C° 0 mm 2 m/s 755 mmHg 73%
01:00 +23°C° 0 mm 2 m/s 755 mmHg 74%
02:00 +21°C° 0 mm 2 m/s 755 mmHg 76%
03:00 +21°C° 0 mm 2 m/s 755 mmHg 78%
04:00 +20°C° 0 mm 3 m/s 755 mmHg 80%
05:00 +21°C° 0 mm 3 m/s 755 mmHg 78%
06:00 +22°C° 0 mm 3 m/s 756 mmHg 76%
07:00 +24°C° 0 mm 3 m/s 756 mmHg 75%
08:00 +23°C° 0 mm 4 m/s 756 mmHg 74%
09:00 +25°C° 0 mm 4 m/s 756 mmHg 74%
10:00 +25°C° 0 mm 4 m/s 757 mmHg 73%
11:00 +26°C° 0 mm 4 m/s 757 mmHg 69%
12:00 +27°C° 0 mm 4 m/s 757 mmHg 64%
13:00 +28°C° 0 mm 4 m/s 757 mmHg 59%
14:00 +28°C° 0 mm 4 m/s 756 mmHg 55%
15:00 +29°C° 0 mm 4 m/s 756 mmHg 50%
16:00 +30°C° 0 mm 4 m/s 756 mmHg 46%
17:00 +29°C° 0 mm 3 m/s 756 mmHg 50%
18:00 +28°C° 0 mm 3 m/s 756 mmHg 53%
19:00 +27°C° 0 mm 2 m/s 756 mmHg 57%
20:00 +26°C° 0 mm 2 m/s 756 mmHg 56%
21:00 +25°C° 0 mm 2 m/s 756 mmHg 56%
22:00 +24°C° 0 mm 2 m/s 757 mmHg 56%
23:00 +24°C° 0 mm 2 m/s 757 mmHg 59%

28 Julho, Quarta-feira

Tempo Temperatura Precipitação Vento Pressão Humidade
00:00 +23°C° 0 mm 2 m/s 757 mmHg 61%
01:00 +21°C° 0 mm 2 m/s 757 mmHg 64%
02:00 +21°C° 0 mm 2 m/s 757 mmHg 65%
03:00 +20°C° 0 mm 2 m/s 757 mmHg 66%
04:00 +20°C° 0 mm 2 m/s 757 mmHg 67%
05:00 +21°C° 0 mm 2 m/s 757 mmHg 65%
06:00 +22°C° 0 mm 3 m/s 757 mmHg 64%
07:00 +25°C° 0 mm 3 m/s 757 mmHg 62%
08:00 +26°C° 0 mm 3 m/s 757 mmHg 58%
09:00 +27°C° 0 mm 4 m/s 757 mmHg 54%
10:00 +29°C° 0 mm 4 m/s 757 mmHg 50%
11:00 +29°C° 0 mm 4 m/s 757 mmHg 49%
12:00 +29°C° 0 mm 4 m/s 757 mmHg 48%
13:00 +29°C° 0 mm 4 m/s 757 mmHg 47%
14:00 +28°C° 0 mm 4 m/s 757 mmHg 49%
15:00 +28°C° 0 mm 4 m/s 757 mmHg 51%
16:00 +27°C° 0 mm 5 m/s 757 mmHg 52%
17:00 +25°C° 0.1 mm 4 m/s 757 mmHg 61%
18:00 +23°C° 0.1 mm 4 m/s 757 mmHg 70%
19:00 +21°C° 0.1 mm 3 m/s 757 mmHg 79%
20:00 +20°C° 0.2 mm 3 m/s 757 mmHg 82%
21:00 +20°C° 0.2 mm 3 m/s 757 mmHg 86%
22:00 +19°C° 0.2 mm 2 m/s 758 mmHg 89%
23:00 +19°C° 0 mm 2 m/s 758 mmHg 91%

29 Julho, Quinta-feira

Tempo Temperatura Precipitação Vento Pressão Humidade
00:00 +18°C° 0 mm 3 m/s 758 mmHg 93%
01:00 +17°C° 0 mm 3 m/s 758 mmHg 95%
02:00 +17°C° 0 mm 2 m/s 758 mmHg 95%
03:00 +17°C° 0 mm 2 m/s 758 mmHg 95%
04:00 +16°C° 0 mm 2 m/s 758 mmHg 96%
05:00 +18°C° 0 mm 2 m/s 758 mmHg 90%
06:00 +19°C° 0 mm 2 m/s 759 mmHg 85%
07:00 +20°C° 0 mm 2 m/s 759 mmHg 79%
08:00 +23°C° 0 mm 2 m/s 759 mmHg 71%
09:00 +25°C° 0 mm 2 m/s 759 mmHg 63%
10:00 +26°C° 0 mm 3 m/s 759 mmHg 55%
11:00 +27°C° 0 mm 3 m/s 758 mmHg 51%
12:00 +28°C° 0 mm 3 m/s 758 mmHg 48%
13:00 +29°C° 0 mm 3 m/s 758 mmHg 44%
14:00 +29°C° 0 mm 3 m/s 757 mmHg 42%
15:00 +30°C° 0 mm 3 m/s 757 mmHg 41%
16:00 +30°C° 0 mm 2 m/s 757 mmHg 40%
17:00 +29°C° 0 mm 2 m/s 756 mmHg 44%
18:00 +28°C° 0 mm 2 m/s 756 mmHg 48%
19:00 +26°C° 0 mm 1 m/s 756 mmHg 52%
20:00 +26°C° 0 mm 2 m/s 756 mmHg 53%
21:00 +25°C° 0 mm 2 m/s 756 mmHg 55%
22:00 +24°C° 0 mm 2 m/s 756 mmHg 56%
23:00 +24°C° 0 mm 2 m/s 755 mmHg 58%

30 Julho, Sexta-feira

Tempo Temperatura Precipitação Vento Pressão Humidade
00:00 +22°C° 0 mm 3 m/s 755 mmHg 59%
01:00 +21°C° 0 mm 3 m/s 755 mmHg 60%
02:00 +21°C° 0 mm 3 m/s 755 mmHg 62%
03:00 +21°C° 0 mm 3 m/s 755 mmHg 64%
04:00 +20°C° 0 mm 3 m/s 755 mmHg 65%
05:00 +21°C° 0.1 mm 3 m/s 755 mmHg 65%
06:00 +22°C° 0.1 mm 3 m/s 755 mmHg 64%
07:00 +23°C° 0.1 mm 4 m/s 755 mmHg 64%
08:00 +26°C° 0.1 mm 4 m/s 754 mmHg 61%
09:00 +27°C° 0.1 mm 4 m/s 754 mmHg 57%
10:00 +28°C° 0.1 mm 5 m/s 753 mmHg 54%
11:00 +29°C° 0 mm 5 m/s 753 mmHg 51%
12:00 +30°C° 0 mm 6 m/s 752 mmHg 49%
13:00 +33°C° 0 mm 7 m/s 752 mmHg 46%
14:00 +30°C° 0 mm 6 m/s 752 mmHg 51%
15:00 +29°C° 0 mm 6 m/s 752 mmHg 57%
16:00 +28°C° 0 mm 6 m/s 753 mmHg 62%
17:00 +27°C° 0 mm 6 m/s 753 mmHg 65%
18:00 +26°C° 0 mm 5 m/s 753 mmHg 68%
19:00 +25°C° 0 mm 4 m/s 753 mmHg 71%
20:00 +23°C° 0 mm 4 m/s 753 mmHg 71%
21:00 +22°C° 0 mm 3 m/s 753 mmHg 72%
22:00 +21°C° 0 mm 2 m/s 753 mmHg 73%
23:00 +21°C° 0 mm 2 m/s 754 mmHg 74%
Mostrar mais

Necessitamos do seu Consentimento

A Meteoprog e os seus Fornecedores de Serviços podem armazenar e aceder a dados pessoais como cookies, identificadores do dispositivo ou outras tecnologias semelhantes existentes no seu dispositivo e processar estes dados para personalizar conteúdos e anúncios, assim como funcionalidades nas redes sociais e análise de tráfego.

  • Armazenar e/ou aceder a informações no seu dispositivo

    Os cookies, identificadores do dispositivo ou outras informações podem ser armazenados ou acedidos no seu dispositivo, para os fins acima indicados.

  • Anúncios e conteúdos personalizados, medição de anúncios e conteúdos, dados sobre o público-alvo e desenvolvimento de produtos

    Os anúncios e os conteúdos podem ser personalizados com base num perfil. Podem ser adicionados dados adicionais para uma maior personalização dos anúncios e dos conteúdos. A eficácia dos anúncios e dos conteúdos pode ser medida. Podem ser obtidas informações sobre o público que visualizou os anúncios e os conteúdos. Estes dados podem ser usados para desenvolver ou melhorar sistemas, softwares ou a experiência do utilizador.

Ao clicar em "Eu concordo”, permitirá o uso de cookies, identificadores do dispositivo e web beacons mencionados ou outras tecnologias semelhantes. As configurações do navegador do seu dispositivo podem ser alteradas.

Para certos fins, podem ser invocados interesses legítimos ao invés de consentimento. Pode ler mais informação sobre este assunto na nossa Política de Privacidade e Cookies.